• In India
  • List of Countries
  • For 7 days
  • Water Temperature
  • Satellite Maps
  • Weather Map
  • Weather Widgets
  • user-avatar
    Login

    Hourly Weather Popasne

    Today, 16 August, Thursday

    Time Temperature Precipitation Wind Pressure Humidity
    00:00 +25°C° 0 mm 2 mps 744 mmHg 41%
    01:00 +24°C° 0 mm 2 mps 744 mmHg 42%
    02:00 +24°C° 0 mm 2 mps 744 mmHg 43%
    03:00 +23°C° 0 mm 2 mps 744 mmHg 46%
    04:00 +23°C° 0 mm 2 mps 744 mmHg 47%
    05:00 +23°C° 0 mm 2 mps 744 mmHg 47%
    06:00 +21°C° 0 mm 2 mps 744 mmHg 47%
    07:00 +25°C° 0 mm 2 mps 744 mmHg 42%
    08:00 +27°C° 0 mm 2 mps 744 mmHg 37%
    09:00 +29°C° 0 mm 2 mps 744 mmHg 32%
    10:00 +31°C° 0 mm 2 mps 744 mmHg 29%
    11:00 +33°C° 0 mm 3 mps 744 mmHg 26%
    12:00 +35°C° 0 mm 3 mps 744 mmHg 23%
    13:00 +35°C° 0 mm 3 mps 744 mmHg 22%
    14:00 +35°C° 0 mm 3 mps 743 mmHg 21%
    15:00 +36°C° 0 mm 3 mps 743 mmHg 20%
    16:00 +35°C° 0 mm 3 mps 743 mmHg 21%
    17:00 +35°C° 0 mm 3 mps 743 mmHg 22%
    18:00 +34°C° 0 mm 3 mps 743 mmHg 23%
    19:00 +31°C° 0 mm 2 mps 743 mmHg 26%
    20:00 +29°C° 0 mm 2 mps 743 mmHg 29%
    21:00 +27°C° 0 mm 2 mps 743 mmHg 32%
    22:00 +26°C° 0 mm 2 mps 743 mmHg 33%
    23:00 +26°C° 0 mm 2 mps 743 mmHg 34%

    Tomorrow, 17 August, Friday

    Time Temperature Precipitation Wind Pressure Humidity
    00:00 +25°C° 0 mm 2 mps 743 mmHg 35%
    01:00 +25°C° 0 mm 2 mps 743 mmHg 36%
    02:00 +24°C° 0 mm 2 mps 743 mmHg 37%
    03:00 +24°C° 0 mm 2 mps 743 mmHg 38%
    04:00 +24°C° 0 mm 2 mps 743 mmHg 40%
    05:00 +23°C° 0 mm 2 mps 743 mmHg 42%
    06:00 +23°C° 0 mm 2 mps 743 mmHg 43%
    07:00 +25°C° 0 mm 2 mps 743 mmHg 40%
    08:00 +27°C° 0 mm 3 mps 743 mmHg 37%
    09:00 +29°C° 0 mm 3 mps 743 mmHg 34%
    10:00 +31°C° 0 mm 3 mps 743 mmHg 31%
    11:00 +33°C° 0 mm 4 mps 743 mmHg 28%
    12:00 +35°C° 0 mm 4 mps 743 mmHg 24%
    13:00 +35°C° 0 mm 3 mps 743 mmHg 24%
    14:00 +35°C° 0 mm 3 mps 743 mmHg 24%
    15:00 +35°C° 0 mm 3 mps 743 mmHg 24%
    16:00 +34°C° 0 mm 3 mps 742 mmHg 26%
    17:00 +33°C° 0 mm 3 mps 742 mmHg 28%
    18:00 +33°C° 0 mm 3 mps 742 mmHg 29%
    19:00 +30°C° 0 mm 3 mps 742 mmHg 31%
    20:00 +29°C° 0 mm 3 mps 742 mmHg 33%
    21:00 +28°C° 0 mm 3 mps 743 mmHg 35%
    22:00 +27°C° 0 mm 3 mps 743 mmHg 37%
    23:00 +26°C° 0 mm 3 mps 743 mmHg 39%

    Day after tomorrow, 18 August, Saturday

    Time Temperature Precipitation Wind Pressure Humidity
    00:00 +25°C° 0 mm 3 mps 743 mmHg 42%
    01:00 +25°C° 0 mm 3 mps 743 mmHg 45%
    02:00 +24°C° 0 mm 3 mps 743 mmHg 49%
    03:00 +22°C° 0 mm 3 mps 743 mmHg 52%
    04:00 +22°C° 0 mm 3 mps 743 mmHg 58%
    05:00 +21°C° 0 mm 3 mps 743 mmHg 63%
    06:00 +20°C° 0 mm 3 mps 743 mmHg 68%
    07:00 +23°C° 0 mm 4 mps 743 mmHg 62%
    08:00 +26°C° 0 mm 4 mps 743 mmHg 57%
    09:00 +28°C° 0 mm 5 mps 744 mmHg 51%
    10:00 +29°C° 0 mm 5 mps 744 mmHg 45%
    11:00 +32°C° 0 mm 5 mps 744 mmHg 39%
    12:00 +33°C° 0 mm 5 mps 744 mmHg 33%
    13:00 +33°C° 0 mm 5 mps 744 mmHg 33%
    14:00 +33°C° 0 mm 5 mps 744 mmHg 33%
    15:00 +33°C° 0 mm 5 mps 744 mmHg 33%
    16:00 +33°C° 0 mm 5 mps 744 mmHg 34%
    17:00 +32°C° 0 mm 5 mps 744 mmHg 35%
    18:00 +30°C° 0 mm 5 mps 744 mmHg 36%
    19:00 +29°C° 0 mm 5 mps 744 mmHg 38%
    20:00 +27°C° 0 mm 5 mps 744 mmHg 41%
    21:00 +25°C° 0 mm 5 mps 745 mmHg 43%
    22:00 +23°C° 0 mm 4 mps 745 mmHg 43%
    23:00 +22°C° 0 mm 4 mps 745 mmHg 44%

    19 August, Sunday

    Time Temperature Precipitation Wind Pressure Humidity
    00:00 +21°C° 0 mm 4 mps 745 mmHg 44%
    01:00 +21°C° 0 mm 4 mps 745 mmHg 46%
    02:00 +20°C° 0 mm 4 mps 745 mmHg 48%
    03:00 +19°C° 0 mm 4 mps 745 mmHg 50%
    04:00 +18°C° 0 mm 3 mps 745 mmHg 51%
    05:00 +17°C° 0 mm 3 mps 745 mmHg 53%
    06:00 +17°C° 0 mm 3 mps 745 mmHg 54%
    07:00 +19°C° 0 mm 4 mps 746 mmHg 50%
    08:00 +21°C° 0 mm 4 mps 746 mmHg 45%
    09:00 +23°C° 0 mm 5 mps 746 mmHg 40%
    10:00 +25°C° 0 mm 5 mps 746 mmHg 36%
    11:00 +27°C° 0 mm 5 mps 746 mmHg 31%
    12:00 +28°C° 0 mm 5 mps 746 mmHg 27%
    13:00 +29°C° 0 mm 5 mps 745 mmHg 25%
    14:00 +29°C° 0 mm 5 mps 745 mmHg 24%
    15:00 +30°C° 0 mm 4 mps 745 mmHg 22%
    16:00 +29°C° 0 mm 4 mps 745 mmHg 23%
    17:00 +28°C° 0 mm 4 mps 745 mmHg 24%
    18:00 +28°C° 0 mm 4 mps 745 mmHg 24%
    19:00 +26°C° 0 mm 4 mps 745 mmHg 28%
    20:00 +24°C° 0 mm 3 mps 745 mmHg 31%
    21:00 +21°C° 0 mm 3 mps 745 mmHg 34%
    22:00 +20°C° 0 mm 3 mps 745 mmHg 36%
    23:00 +19°C° 0 mm 3 mps 745 mmHg 38%

    20 August, Monday

    Time Temperature Precipitation Wind Pressure Humidity
    00:00 +18°C° 0 mm 3 mps 745 mmHg 40%
    01:00 +18°C° 0 mm 3 mps 745 mmHg 41%
    02:00 +17°C° 0 mm 3 mps 745 mmHg 43%
    03:00 +17°C° 0 mm 2 mps 745 mmHg 45%
    04:00 +16°C° 0 mm 2 mps 745 mmHg 46%
    05:00 +16°C° 0 mm 2 mps 745 mmHg 47%
    06:00 +16°C° 0 mm 2 mps 745 mmHg 48%
    07:00 +18°C° 0 mm 3 mps 746 mmHg 43%
    08:00 +20°C° 0 mm 3 mps 746 mmHg 39%
    09:00 +24°C° 0 mm 3 mps 746 mmHg 34%
    10:00 +25°C° 0 mm 3 mps 746 mmHg 31%
    11:00 +26°C° 0 mm 3 mps 746 mmHg 29%
    12:00 +28°C° 0 mm 3 mps 746 mmHg 26%
    13:00 +28°C° 0 mm 3 mps 746 mmHg 25%
    14:00 +29°C° 0 mm 3 mps 746 mmHg 24%
    15:00 +29°C° 0 mm 3 mps 745 mmHg 23%
    16:00 +29°C° 0 mm 3 mps 745 mmHg 24%
    17:00 +29°C° 0 mm 3 mps 745 mmHg 24%
    18:00 +28°C° 0 mm 3 mps 745 mmHg 25%
    19:00 +26°C° 0 mm 3 mps 745 mmHg 28%
    20:00 +24°C° 0 mm 3 mps 745 mmHg 31%
    21:00 +21°C° 0 mm 2 mps 745 mmHg 34%
    22:00 +20°C° 0 mm 2 mps 745 mmHg 34%
    23:00 +20°C° 0 mm 2 mps 745 mmHg 35%

    21 August, Tuesday

    Time Temperature Precipitation Wind Pressure Humidity
    00:00 +19°C° 0 mm 2 mps 746 mmHg 35%
    01:00 +19°C° 0 mm 2 mps 745 mmHg 36%
    02:00 +18°C° 0 mm 2 mps 745 mmHg 36%
    03:00 +19°C° 0 mm 1 mps 745 mmHg 37%
    04:00 +19°C° 0 mm 1 mps 746 mmHg 38%
    05:00 +18°C° 0 mm 1 mps 746 mmHg 38%
    06:00 +18°C° 0 mm 1 mps 746 mmHg 39%
    07:00 +19°C° 0 mm 2 mps 746 mmHg 36%
    08:00 +23°C° 0 mm 2 mps 746 mmHg 32%
    09:00 +25°C° 0 mm 2 mps 747 mmHg 29%
    10:00 +26°C° 0 mm 2 mps 747 mmHg 26%
    11:00 +28°C° 0 mm 2 mps 746 mmHg 23%
    12:00 +29°C° 0 mm 2 mps 746 mmHg 20%
    13:00 +30°C° 0 mm 2 mps 746 mmHg 20%
    14:00 +30°C° 0 mm 2 mps 746 mmHg 19%
    15:00 +31°C° 0 mm 1 mps 746 mmHg 18%
    16:00 +31°C° 0 mm 1 mps 745 mmHg 18%
    17:00 +31°C° 0 mm 1 mps 745 mmHg 19%
    18:00 +30°C° 0 mm 1 mps 745 mmHg 20%
    19:00 +28°C° 0 mm 1 mps 745 mmHg 23%
    20:00 +26°C° 0 mm 1 mps 745 mmHg 25%
    21:00 +24°C° 0 mm 1 mps 745 mmHg 28%
    22:00 +23°C° 0 mm 1 mps 745 mmHg 29%
    23:00 +22°C° 0 mm 1 mps 745 mmHg 30%
    Show more